SCOUT A R/B, 2413

Orbit data source: Space-Track

SCOUT A R/B, 2413 is space debris in LEO originally from a launch on Thu, 18 Aug 1966 UTC launched from the Air Force Western Test Range (AFWTR). Debris objects in space refer to the collection of defunct objects orbiting the Earth. Examples of debris include non-operational satellites, rocket bodies, and fragments generated from explosions, collisions, or faulty payload assembly.

Loading next visibility...
Identifier
2413, 1966-076B
Orbit
LEO
Country
Flag of USUS
Related business
Manufacturer
ABL
Mission
Spacecraft
Bus & Motor
ALTAIR, Unknown motor
Mass
33 kg wet, 33 kg dry
Launch date (UTC)
1966-08-18 (59 years ago)
Launch vehicle
Unknown
Launch site
Air Force Western Test Range (AFWTR)
Object type
Payload
Rocket body
Debris
Shape & HBR
Cyl, 0.8 m
Radar Cross Section
0.687 m², Medium (>0.1 m² and < 1m²)

Expand to show TLE details & history
Last TLE update: 19 hours ago

TLE from 19 hours ago
0 SCOUT A R/B
1 02413U 66076B   25259.60898806  .00000083  00000-0  10765-3 0  9996
2 02413  88.8447 103.7121 0033524 135.1027 225.2845 13.51824709911696
Epoch: 2025-09-16T14:36Z
TLE epoch observation values (Epoch: 2025-09-16T14:36:56.568Z)
Latitude
-0.00002°
Longitude
-111.32044°
Altitude
1,086.11 km
Speed
7.3 km/s
True Right ascension
06h 54m 50s
True Declination
0° 00' 00"
Sunlit
Object was in daylight at epoch
Visualization orbit readout
Latitude
Unknown
Longitude
Unknown
Altitude
Unknown
Speed
Unknown
Apparent Right ascension
Unknown
Apparent Declination
Unknown
Sunlit
N/A
Visualization observer readout
Local Sidereal Time
02:04:49
Azimuth
Unknown
Elevation
Unknown
Doppler factor
Unknown
Orbital elements
Apogee altitude
1,087.548 km
Perigee altitude
1,037.659 km
Semi-major axis
7,440.74 km
Eccentricity
0.00335
Inclination
88.8447°
RAAN
103.7121°
Arg. of periapsis
135.1027°
True anomaly
225.01232°
Mean anomaly
225.2845°
Eccentric anomaly
225.14833°
Mean motion
3.38157 °/min
Orbital period
106.46 mins
BSTAR
0.00010765
Loading maneuver chart data...
Computing Atmospheric mass density...
Loading historical data...
Loading historical data...
Loading historical data...
Loading historical data...
Loading historical data...
Loading historical data...
Loading historical data...

Documentation

Showing up to 5 results
|